�������l�o���
Date,Time,MP-1(��Sv/h),MP-2(��Sv/h),MP-3(��Sv/h),MP-4(��Sv/h),MP-5(��Sv/h),MP-6(��Sv/h),MP-7(��Sv/h),MP-8(��Sv/h),����,����(m/s),���J
2018/07/17,00:00,0.896,1.277,0.888,1.578,1.127,0.480,0.838,0.792,���쐼,2.2,��
2018/07/17,00:10,0.892,1.273,0.890,1.575,1.129,0.482,0.837,0.794,���쐼,1.5,��
2018/07/17,00:20,0.892,1.275,0.890,1.577,1.128,0.481,0.838,0.792,���쐼,1.1,��
2018/07/17,00:30,0.894,1.275,0.891,1.576,1.128,0.481,0.839,0.793,��,1.9,��
2018/07/17,00:40,0.894,1.275,0.889,1.576,1.128,0.482,0.839,0.793,��,2.0,��
2018/07/17,00:50,0.894,1.275,0.888,1.575,1.127,0.481,0.840,0.791,���쐼,1.7,��
2018/07/17,01:00,0.896,1.275,0.890,1.576,1.129,0.481,0.839,0.793,���쐼,1.9,��
2018/07/17,01:10,0.894,1.275,0.889,1.575,1.131,0.482,0.839,0.790,���쐼,2.2,��
2018/07/17,01:20,0.892,1.275,0.891,1.574,1.129,0.481,0.840,0.794,��,2.0,��
2018/07/17,01:30,0.893,1.273,0.890,1.576,1.128,0.482,0.837,0.792,��,1.2,��
2018/07/17,01:40,0.892,1.274,0.889,1.576,1.127,0.481,0.838,0.794,�쐼,0.6,��
2018/07/17,01:50,0.893,1.274,0.890,1.576,1.130,0.482,0.840,0.793,��,0.9,��
2018/07/17,02:00,0.893,1.275,0.891,1.574,1.130,0.480,0.839,0.794,-,CALM,��
2018/07/17,02:10,0.895,1.274,0.889,1.576,1.128,0.482,0.838,0.793,��,0.6,��
2018/07/17,02:20,0.895,1.276,0.890,1.578,1.128,0.482,0.839,0.792,-,CALM,��
2018/07/17,02:30,0.895,1.274,0.890,1.578,1.126,0.482,0.839,0.793,-,CALM,��
2018/07/17,02:40,0.894,1.276,0.892,1.578,1.129,0.481,0.838,0.792,-,CALM,��
2018/07/17,02:50,0.895,1.275,0.892,1.578,1.130,0.481,0.839,0.791,���쓌,0.8,��
2018/07/17,03:00,0.893,1.275,0.890,1.576,1.129,0.482,0.840,0.793,�k��,1.1,��
2018/07/17,03:10,0.893,1.273,0.891,1.576,1.128,0.481,0.838,0.791,-,CALM,��
2018/07/17,03:20,0.891,1.272,0.891,1.576,1.126,0.481,0.839,0.792,-,CALM,��
2018/07/17,03:30,0.893,1.273,0.892,1.576,1.128,0.482,0.838,0.792,�k�k��,0.8,��
2018/07/17,03:40,0.892,1.274,0.889,1.575,1.130,0.481,0.838,0.792,��,0.6,��
2018/07/17,03:50,0.893,1.272,0.891,1.574,1.128,0.481,0.840,0.792,��,0.6,��
2018/07/17,04:00,0.893,1.274,0.889,1.574,1.126,0.481,0.837,0.791,�쓌,1.1,��
2018/07/17,04:10,0.894,1.276,0.890,1.576,1.128,0.481,0.838,0.793,-,CALM,��
2018/07/17,04:20,0.890,1.272,0.887,1.574,1.127,0.480,0.838,0.792,-,CALM,��
2018/07/17,04:30,0.894,1.273,0.890,1.574,1.126,0.481,0.838,0.793,-,CALM,��
2018/07/17,04:40,0.892,1.274,0.890,1.577,1.127,0.482,0.838,0.793,��,0.6,��
2018/07/17,04:50,0.891,1.276,0.890,1.577,1.125,0.483,0.839,0.794,�k�k��,0.9,��
2018/07/17,05:00,0.894,1.276,0.889,1.575,1.127,0.482,0.838,0.793,-,CALM,��
2018/07/17,05:10,0.893,1.273,0.890,1.576,1.128,0.483,0.838,0.793,�쐼,0.6,��
2018/07/17,05:20,0.892,1.276,0.891,1.578,1.127,0.481,0.839,0.793,-,CALM,��
2018/07/17,05:30,0.893,1.274,0.892,1.575,1.128,0.482,0.839,0.793,�k,1.5,��
2018/07/17,05:40,0.895,1.274,0.888,1.576,1.130,0.481,0.838,0.794,�k�k��,0.9,��
2018/07/17,05:50,0.895,1.274,0.889,1.573,1.129,0.484,0.840,0.793,�k,1.2,��
2018/07/17,06:00,0.893,1.274,0.888,1.574,1.127,0.481,0.840,0.795,�k�k��,0.9,��
2018/07/17,06:10,0.892,1.275,0.890,1.574,1.128,0.483,0.838,0.792,�k,1.7,��
2018/07/17,06:20,0.895,1.275,0.890,1.573,1.127,0.481,0.840,0.793,�k,1.7,��
2018/07/17,06:30,0.893,1.274,0.889,1.574,1.127,0.480,0.839,0.792,�k�k��,1.2,��
2018/07/17,06:40,0.895,1.272,0.888,1.576,1.128,0.481,0.840,0.794,-,CALM,��
2018/07/17,06:50,0.893,1.275,0.888,1.578,1.126,0.482,0.840,0.793,�k�k��,0.9,��
2018/07/17,07:00,0.893,1.274,0.889,1.576,1.126,0.482,0.839,0.793,-,CALM,��
2018/07/17,07:10,0.893,1.274,0.889,1.581,1.127,0.482,0.840,0.794,�k�k��,0.8,��
2018/07/17,07:20,0.894,1.276,0.890,1.576,1.126,0.482,0.839,0.792,�k��,1.2,��
2018/07/17,07:30,0.893,1.276,0.887,1.575,1.126,0.480,0.838,0.792,�k�k��,1.2,�L
2018/07/17,07:40,0.892,1.275,0.891,1.579,1.126,0.483,0.839,0.793,-,CALM,�L
2018/07/17,07:50,0.893,1.275,0.889,1.576,1.127,0.481,0.839,0.792,�k�k��,1.4,��
2018/07/17,08:00,0.894,1.275,0.887,1.578,1.127,0.482,0.838,0.794,�k��,0.6,�L
2018/07/17,08:10,0.896,1.274,0.890,1.578,1.128,0.482,0.840,0.793,��,0.9,��
2018/07/17,08:20,0.895,1.274,0.890,1.576,1.130,0.483,0.839,0.795,���k��,1.4,��
2018/07/17,08:30,0.895,1.271,0.890,1.576,1.128,0.483,0.839,0.794,-,CALM,��
2018/07/17,08:40,0.895,1.275,0.891,1.579,1.129,0.482,0.841,0.793,-,CALM,��
2018/07/17,08:50,0.895,1.277,0.891,1.577,1.130,0.481,0.840,0.793,-,CALM,��
2018/07/17,09:00,0.895,1.273,0.890,1.578,1.129,0.482,0.840,0.793,�k��,1.2,��
2018/07/17,09:10,0.894,1.271,0.890,1.574,1.131,0.484,0.841,0.792,��,1.4,��
2018/07/17,09:20,0.898,1.269,0.888,1.576,1.130,0.482,0.842,0.794,�k�k��,1.9,��
2018/07/17,09:30,0.894,1.274,0.888,1.576,1.128,0.481,0.842,0.793,�k��,2.3,��
2018/07/17,09:40,0.894,1.271,0.885,1.576,1.129,0.481,0.840,0.791,�k��,2.0,��
2018/07/17,09:50,0.893,1.273,0.889,1.574,1.128,0.480,0.839,0.790,�k��,2.3,��
2018/07/17,10:00,0.895,1.272,0.887,1.578,1.129,0.483,0.840,0.792,���k��,2.2,��
2018/07/17,10:10,0.895,1.275,0.888,1.575,1.129,0.482,0.838,0.792,�k��,2.0,��
2018/07/17,10:20,0.896,1.273,0.887,1.576,1.130,0.481,0.839,0.789,���k��,1.4,��
2018/07/17,10:30,0.895,1.275,0.888,1.578,1.131,0.481,0.840,0.790,���k��,1.5,��
2018/07/17,10:40,0.896,1.273,0.889,1.580,1.131,0.480,0.837,0.792,�k��,1.2,��
2018/07/17,10:50,0.895,1.276,0.889,1.579,1.129,0.481,0.839,0.790,�k�k��,1.5,��
2018/07/17,11:00,0.896,1.273,0.888,1.580,1.131,0.480,0.839,0.790,��,1.2,��
2018/07/17,11:10,0.896,1.275,0.888,1.579,1.130,0.480,0.838,0.790,�쓌,1.2,��
2018/07/17,11:20,0.895,1.273,0.886,1.579,1.130,0.480,0.839,0.789,���k��,1.5,��
2018/07/17,11:30,0.894,1.275,0.888,1.578,1.129,0.479,0.839,0.791,���k��,0.8,��
2018/07/17,11:40,0.897,1.276,0.889,1.578,1.133,0.480,0.839,0.791,�쓌,0.9,��
2018/07/17,11:50,0.895,1.276,0.891,1.576,1.132,0.480,0.840,0.791,�k��,1.1,��
2018/07/17,12:00,0.893,1.278,0.889,1.577,1.133,0.481,0.839,0.792,���쓌,1.5,��
2018/07/17,12:10,0.896,1.277,0.889,1.579,1.132,0.481,0.841,0.793,���쓌,2.0,��
2018/07/17,12:20,0.896,1.281,0.891,1.577,1.131,0.481,0.839,0.792,��,2.0,��
2018/07/17,12:30,0.896,1.277,0.892,1.578,1.134,0.482,0.839,0.792,���쓌,2.8,��
2018/07/17,12:40,0.893,1.277,0.890,1.577,1.132,0.482,0.839,0.792,��,2.0,��
2018/07/17,12:50,0.897,1.277,0.892,1.580,1.132,0.482,0.841,0.792,���쓌,1.7,��
2018/07/17,13:00,0.894,1.276,0.891,1.582,1.132,0.482,0.840,0.790,�쓌,1.9,��
2018/07/17,13:10,0.896,1.277,0.890,1.581,1.132,0.484,0.840,0.791,�쓌,2.5,��
2018/07/17,13:20,0.896,1.278,0.892,1.578,1.134,0.482,0.840,0.793,�쓌,2.6,��
2018/07/17,13:30,0.896,1.278,0.894,1.580,1.134,0.482,0.839,0.792,�쓌,3.1,��
2018/07/17,13:40,0.896,1.279,0.891,1.582,1.134,0.483,0.842,0.792,�쓌,3.9,��
2018/07/17,13:50,0.895,1.277,0.891,1.578,1.134,0.483,0.841,0.792,�쓌,4.2,��
2018/07/17,14:00,0.896,1.280,0.893,1.582,1.133,0.481,0.841,0.792,�쓌,4.4,��
2018/07/17,14:10,0.896,1.274,0.891,1.581,1.133,0.483,0.840,0.792,�쓌,5.4,��
2018/07/17,14:20,0.896,1.279,0.891,1.580,1.133,0.481,0.839,0.793,��쓌,6.3,��
2018/07/17,14:30,0.896,1.276,0.893,1.583,1.135,0.482,0.840,0.792,��쓌,6.9,��
2018/07/17,14:40,0.895,1.282,0.890,1.579,1.133,0.483,0.841,0.792,��쓌,6.4,��
2018/07/17,14:50,0.896,1.280,0.893,1.583,1.138,0.482,0.841,0.792,��,5.8,��
2018/07/17,15:00,0.897,1.281,0.894,1.581,1.134,0.483,0.840,0.791,��,5.6,��
2018/07/17,15:10,0.896,1.280,0.894,1.582,1.137,0.482,0.841,0.791,��쓌,5.5,��
2018/07/17,15:20,0.896,1.278,0.894,1.581,1.135,0.483,0.839,0.794,��,6.5,��
2018/07/17,15:30,0.897,1.280,0.893,1.580,1.137,0.482,0.838,0.794,��,5.4,��
2018/07/17,15:40,0.895,1.279,0.894,1.582,1.139,0.482,0.840,0.794,��,6.6,��
2018/07/17,15:50,0.898,1.280,0.895,1.584,1.138,0.482,0.842,0.792,��쓌,8.1,��
2018/07/17,16:00,0.898,1.281,0.897,1.585,1.137,0.483,0.841,0.795,��,8.6,��
2018/07/17,16:10,0.898,1.281,0.893,1.583,1.138,0.483,0.841,0.792,��,7.8,��
2018/07/17,16:20,0.898,1.281,0.893,1.584,1.139,0.483,0.842,0.793,��,7.2,��
2018/07/17,16:30,0.899,1.284,0.896,1.585,1.140,0.481,0.840,0.793,��,7.3,��
2018/07/17,16:40,0.897,1.285,0.896,1.585,1.138,0.481,0.840,0.793,��,6.2,��
2018/07/17,16:50,0.899,1.285,0.892,1.584,1.138,0.481,0.844,0.795,��,6.7,��
2018/07/17,17:00,0.902,1.284,0.894,1.582,1.136,0.482,0.842,0.792,��,5.9,��
2018/07/17,17:10,0.900,1.282,0.894,1.583,1.136,0.480,0.841,0.794,��쐼,5.2,��
2018/07/17,17:20,0.900,1.284,0.896,1.586,1.138,0.483,0.842,0.794,��쐼,4.0,��
2018/07/17,17:30,0.901,1.283,0.895,1.586,1.138,0.482,0.840,0.795,�쐼,1.4,��
2018/07/17,17:40,0.902,1.279,0.894,1.586,1.138,0.482,0.841,0.795,��쐼,2.3,��
2018/07/17,17:50,0.898,1.281,0.893,1.585,1.139,0.482,0.842,0.793,��쐼,3.4,��
2018/07/17,18:00,0.898,1.281,0.894,1.586,1.137,0.481,0.843,0.792,��쐼,3.1,��
2018/07/17,18:10,0.899,1.281,0.895,1.586,1.138,0.481,0.840,0.795,-,CALM,��
2018/07/17,18:20,0.899,1.279,0.894,1.584,1.136,0.482,0.841,0.791,�k�k��,0.9,��
2018/07/17,18:30,0.898,1.283,0.894,1.584,1.136,0.482,0.841,0.793,�k��,1.7,��
2018/07/17,18:40,0.898,1.280,0.895,1.582,1.136,0.482,0.843,0.796,�k��,2.0,��
2018/07/17,18:50,0.900,1.282,0.892,1.586,1.136,0.480,0.841,0.793,���k��,1.4,��
2018/07/17,19:00,0.903,1.281,0.894,1.587,1.136,0.481,0.842,0.795,�k��,1.7,��
2018/07/17,19:10,0.899,1.281,0.894,1.585,1.135,0.480,0.841,0.795,�k��,1.2,��
2018/07/17,19:20,0.899,1.280,0.894,1.585,1.136,0.480,0.843,0.795,�k��,0.9,��
2018/07/17,19:30,0.899,1.280,0.893,1.585,1.135,0.481,0.840,0.794,�k��,1.4,��
2018/07/17,19:40,0.899,1.281,0.893,1.586,1.136,0.481,0.843,0.795,���k��,1.2,��
2018/07/17,19:50,0.898,1.279,0.894,1.586,1.132,0.482,0.841,0.794,���k��,1.1,��
2018/07/17,20:00,0.899,1.279,0.895,1.590,1.135,0.483,0.840,0.794,��,1.2,��
2018/07/17,20:10,0.900,1.282,0.896,1.584,1.136,0.481,0.840,0.794,���k��,1.5,��
2018/07/17,20:20,0.902,1.283,0.897,1.586,1.134,0.481,0.843,0.794,���k��,1.2,��
2018/07/17,20:30,0.900,1.281,0.893,1.583,1.136,0.481,0.841,0.794,���k��,0.9,��
2018/07/17,20:40,0.899,1.282,0.895,1.584,1.136,0.483,0.844,0.794,��,0.9,��
2018/07/17,20:50,0.900,1.283,0.895,1.586,1.135,0.480,0.839,0.794,-,CALM,��
2018/07/17,21:00,0.899,1.282,0.894,1.587,1.139,0.482,0.843,0.793,�k�k��,1.7,��
2018/07/17,21:10,0.899,1.284,0.894,1.586,1.137,0.480,0.844,0.794,�k�k��,2.0,��
2018/07/17,21:20,0.899,1.282,0.894,1.585,1.136,0.480,0.841,0.796,�k,2.6,��
2018/07/17,21:30,0.897,1.280,0.893,1.584,1.136,0.482,0.842,0.793,�k,2.6,��
2018/07/17,21:40,0.896,1.278,0.893,1.585,1.135,0.482,0.841,0.793,�k,2.5,��
2018/07/17,21:50,0.897,1.279,0.894,1.585,1.135,0.482,0.841,0.793,�k,1.7,��
2018/07/17,22:00,0.897,1.281,0.895,1.583,1.135,0.479,0.843,0.795,�k,0.8,��
2018/07/17,22:10,0.898,1.279,0.895,1.586,1.136,0.481,0.842,0.793,�k�k��,1.2,��
2018/07/17,22:20,0.899,1.281,0.893,1.583,1.135,0.480,0.841,0.793,�k�k��,0.9,��
2018/07/17,22:30,0.899,1.281,0.892,1.585,1.133,0.481,0.842,0.791,�k��,1.9,��
2018/07/17,22:40,0.900,1.281,0.894,1.586,1.137,0.482,0.840,0.792,���쐼,0.8,��
2018/07/17,22:50,0.899,1.281,0.893,1.584,1.136,0.481,0.841,0.793,���쐼,1.2,��
2018/07/17,23:00,0.899,1.283,0.894,1.583,1.136,0.480,0.840,0.792,���쐼,1.1,��
2018/07/17,23:10,0.897,1.280,0.894,1.584,1.132,0.483,0.841,0.791,���k��,0.8,��
2018/07/17,23:20,0.897,1.279,0.893,1.587,1.133,0.481,0.840,0.795,���k��,1.4,��
2018/07/17,23:30,0.897,1.280,0.895,1.584,1.137,0.482,0.841,0.794,�k�k��,1.7,��
2018/07/17,23:40,0.898,1.279,0.891,1.584,1.136,0.483,0.839,0.793,�k��,1.7,��
2018/07/17,23:50,0.898,1.280,0.895,1.581,1.134,0.481,0.840,0.795,�k�k��,2.3,��
